World > North America > United States > New York

Hourly New Square, NY Regional Weather

Feedback E-mail the Weather

Quick WX

New Square, NY Weather Maps

°F °C°F °C
New Square Weather Map
UTC Time: 6/30/2022, 16:18
Your Time:

New Square, NY Regional Weather

Expires:202206301700;;446689
ASUS41 KALY 301610
RWRALY

NEW YORK STATE HOURLY WEATHER ROUNDUP
NATIONAL WEATHER SERVICE ALBANY NY
1200 PM EDT THU JUN 30 2022

NOTE: "FAIR" INDICATES FEW OR NO CLOUDS BELOW 12,000 FEET WITH NO
SIGNIFICANT WEATHER AND/OR NO OBSTRUCTIONS TO VISIBILITY.


NYZ032-033-038>043-046>054-057>066-NYZ062>081-082-084-301700-
EAST

  
CITY           SKY/WX    TMP DP  RH WIND       PRES   REMARKS
ALBANY         PTSUNNY   76  55  48 VRB3      30.21F                  
GLENS FALLS    SUNNY     71  52  50 SW5       30.21F                  
POUGHKEEPSIE   SUNNY     79  57  46 N8        30.19F                  
NEWBURGH       MOSUNNY   77  55  47 NW12      30.21F                  
MONTGOMERY     SUNNY     78  57  48 W7        30.20F                  
WHITE PLAINS   MOSUNNY   81  55  41 NW8       30.20F                  
ISLIP          MOSUNNY   80  57  45 NW10      30.19S                  
NEW YORK CITY  MOSUNNY   81  54  39 NW5       30.19F                  
CENTRAL PARK   SUNNY     82  56  40 MISG      30.22F                  
$$


SKY/WX - Weather  TMP - Temperature  DP - Dew Point  RH - Humidity
WIND - Wind Direction/Speed PRES - Barometric Pressure VSB - Visibility
WCI - Wind Chill Index E13G22 Wind - East Wind 13 mph/Gusts of 22 mph

Trending Headlines

New Square Radar Loop



New Square Quick Facts


National Two Day Weather Forecast


E-mail the New Square Weather Forecast

Voice your opinion or tell us about page issues...